Year,Month,Day,Hour,Minute,Value (Times are PST for temperature in C)
2010,07,11,00,00,16.90
2010,07,11,00,01,16.90
2010,07,11,00,02,16.90
2010,07,11,00,03,16.80
2010,07,11,00,04,16.80
2010,07,11,00,05,16.70
2010,07,11,00,06,16.70
2010,07,11,00,07,16.60
2010,07,11,00,08,16.60
2010,07,11,00,09,16.60
2010,07,11,00,10,16.60
2010,07,11,00,11,16.60
2010,07,11,00,12,16.60
2010,07,11,00,13,16.60
2010,07,11,00,14,16.60
2010,07,11,00,15,16.60
2010,07,11,00,16,16.60
2010,07,11,00,17,16.60
2010,07,11,00,18,16.60
2010,07,11,00,19,16.60
2010,07,11,00,20,16.60
2010,07,11,00,21,16.60
2010,07,11,00,22,16.60
2010,07,11,00,23,16.60
2010,07,11,00,24,16.60
2010,07,11,00,25,16.60
2010,07,11,00,26,16.60
2010,07,11,00,27,16.60
2010,07,11,00,28,16.60
2010,07,11,00,29,16.50
2010,07,11,00,30,16.50
2010,07,11,00,31,16.50
2010,07,11,00,32,16.50
2010,07,11,00,33,16.40
2010,07,11,00,34,16.40
2010,07,11,00,35,16.40
2010,07,11,00,36,16.40
2010,07,11,00,37,16.30
2010,07,11,00,38,16.30
2010,07,11,00,39,16.30
2010,07,11,00,40,16.30
2010,07,11,00,41,16.30
2010,07,11,00,42,16.30
2010,07,11,00,43,16.30
2010,07,11,00,44,16.30
2010,07,11,00,45,16.20
2010,07,11,00,46,16.20
2010,07,11,00,47,16.20
2010,07,11,00,48,16.20
2010,07,11,00,49,16.20
2010,07,11,00,50,16.20
2010,07,11,00,51,16.20
2010,07,11,00,52,16.30
2010,07,11,00,53,16.30
2010,07,11,00,54,16.30
2010,07,11,00,55,16.30
2010,07,11,00,56,16.30
2010,07,11,00,57,16.30
2010,07,11,00,58,16.30
2010,07,11,00,59,16.30
2010,07,11,01,00,16.30
2010,07,11,01,01,16.30
2010,07,11,01,02,16.30
2010,07,11,01,03,16.30
2010,07,11,01,04,16.30
2010,07,11,01,05,16.30
2010,07,11,01,06,16.30
2010,07,11,01,07,16.30
2010,07,11,01,08,16.30
2010,07,11,01,09,16.30
2010,07,11,01,10,16.30
2010,07,11,01,11,16.20
2010,07,11,01,12,16.20
2010,07,11,01,13,16.20
2010,07,11,01,14,16.10
2010,07,11,01,15,16.10
2010,07,11,01,16,16.10
2010,07,11,01,17,16.00
2010,07,11,01,18,16.00
2010,07,11,01,19,16.00
2010,07,11,01,20,16.00
2010,07,11,01,21,15.90
2010,07,11,01,22,15.90
2010,07,11,01,23,15.90
2010,07,11,01,24,15.90
2010,07,11,01,25,15.90
2010,07,11,01,26,15.90
2010,07,11,01,27,15.90
2010,07,11,01,28,15.80
2010,07,11,01,29,15.80
2010,07,11,01,30,15.80
2010,07,11,01,31,15.80
2010,07,11,01,32,15.80
2010,07,11,01,33,15.80
2010,07,11,01,34,15.80
2010,07,11,01,35,15.80
2010,07,11,01,36,15.80
2010,07,11,01,37,15.80
2010,07,11,01,38,15.80
2010,07,11,01,39,15.80
2010,07,11,01,40,15.80
2010,07,11,01,41,15.80
2010,07,11,01,42,15.80
2010,07,11,01,43,15.80
2010,07,11,01,44,15.80
2010,07,11,01,45,15.80
2010,07,11,01,46,15.80
2010,07,11,01,47,15.70
2010,07,11,01,48,15.70
2010,07,11,01,49,15.70
2010,07,11,01,50,15.70
2010,07,11,01,51,15.70
2010,07,11,01,52,15.70
2010,07,11,01,53,15.70
2010,07,11,01,54,15.70
2010,07,11,01,55,15.70
2010,07,11,01,56,15.70
2010,07,11,01,57,15.70
2010,07,11,01,58,15.70
2010,07,11,01,59,15.70
2010,07,11,02,00,15.70
2010,07,11,02,01,15.60
2010,07,11,02,02,15.60
2010,07,11,02,03,15.60
2010,07,11,02,04,15.60
2010,07,11,02,05,15.60
2010,07,11,02,06,15.60
2010,07,11,02,07,15.60
2010,07,11,02,08,15.60
2010,07,11,02,09,15.60
2010,07,11,02,10,15.50
2010,07,11,02,11,15.50
2010,07,11,02,12,15.50
2010,07,11,02,13,15.50
2010,07,11,02,14,15.40
2010,07,11,02,15,15.40
2010,07,11,02,16,15.40
2010,07,11,02,17,15.40
2010,07,11,02,18,15.40
2010,07,11,02,19,15.30
2010,07,11,02,20,15.30
2010,07,11,02,21,15.30
2010,07,11,02,22,15.30
2010,07,11,02,23,15.30
2010,07,11,02,24,15.20
2010,07,11,02,25,15.20
2010,07,11,02,26,15.20
2010,07,11,02,27,15.20
2010,07,11,02,28,15.20
2010,07,11,02,29,15.20
2010,07,11,02,30,15.10
2010,07,11,02,31,15.10
2010,07,11,02,32,15.10
2010,07,11,02,33,15.10
2010,07,11,02,34,15.00
2010,07,11,02,35,15.00
2010,07,11,02,36,15.00
2010,07,11,02,37,15.00
2010,07,11,02,38,15.00
2010,07,11,02,39,15.00
2010,07,11,02,40,15.00
2010,07,11,02,41,15.00
2010,07,11,02,42,15.00
2010,07,11,02,43,15.00
2010,07,11,02,44,15.00
2010,07,11,02,45,15.00
2010,07,11,02,46,15.00
2010,07,11,02,47,15.00
2010,07,11,02,48,15.00
2010,07,11,02,49,15.00
2010,07,11,02,50,15.00
2010,07,11,02,51,15.00
2010,07,11,02,52,15.00
2010,07,11,02,53,15.00
2010,07,11,02,54,15.00
2010,07,11,02,55,15.00
2010,07,11,02,56,15.00
2010,07,11,02,57,15.00
2010,07,11,02,58,15.00
2010,07,11,02,59,15.00
2010,07,11,03,00,15.00
2010,07,11,03,01,15.00
2010,07,11,03,02,15.00
2010,07,11,03,03,15.00
2010,07,11,03,04,15.00
2010,07,11,03,05,15.00
2010,07,11,03,06,15.00
2010,07,11,03,07,15.00
2010,07,11,03,08,15.00
2010,07,11,03,09,15.00
2010,07,11,03,10,15.00
2010,07,11,03,11,15.00
2010,07,11,03,12,15.00
2010,07,11,03,13,15.00
2010,07,11,03,14,15.00
2010,07,11,03,15,15.00
2010,07,11,03,16,15.00
2010,07,11,03,17,15.00
2010,07,11,03,18,15.00
2010,07,11,03,19,15.00
2010,07,11,03,20,15.00
2010,07,11,03,21,15.00
2010,07,11,03,22,15.00
2010,07,11,03,23,15.00
2010,07,11,03,24,15.00
2010,07,11,03,25,15.00
2010,07,11,03,26,15.00
2010,07,11,03,27,15.00
2010,07,11,03,28,15.00
2010,07,11,03,29,15.00
2010,07,11,03,30,15.00
2010,07,11,03,31,15.00
2010,07,11,03,32,15.00
2010,07,11,03,33,15.00
2010,07,11,03,34,15.00
2010,07,11,03,35,15.00
2010,07,11,03,36,14.90
2010,07,11,03,37,14.90
2010,07,11,03,38,14.90
2010,07,11,03,39,14.90
2010,07,11,03,40,14.80
2010,07,11,03,41,14.80
2010,07,11,03,42,14.80
2010,07,11,03,43,14.80
2010,07,11,03,44,14.80
2010,07,11,03,45,14.80
2010,07,11,03,46,14.80
2010,07,11,03,47,14.80
2010,07,11,03,48,14.80
2010,07,11,03,49,14.80
2010,07,11,03,50,14.80
2010,07,11,03,51,14.70
2010,07,11,03,52,14.70
2010,07,11,03,53,14.70
2010,07,11,03,54,14.70
2010,07,11,03,55,14.70
2010,07,11,03,56,14.70
2010,07,11,03,57,14.70
2010,07,11,03,58,14.70
2010,07,11,03,59,14.60
2010,07,11,04,00,14.60
2010,07,11,04,01,14.60
2010,07,11,04,02,14.60
2010,07,11,04,03,14.50
2010,07,11,04,04,14.50
2010,07,11,04,05,14.50
2010,07,11,04,06,14.40
2010,07,11,04,07,14.40
2010,07,11,04,08,14.40
2010,07,11,04,09,14.40
2010,07,11,04,10,14.40
2010,07,11,04,11,14.40
2010,07,11,04,12,14.40
2010,07,11,04,13,14.40
2010,07,11,04,14,14.40
2010,07,11,04,15,14.40
2010,07,11,04,16,14.40
2010,07,11,04,17,14.50
2010,07,11,04,18,14.50
2010,07,11,04,19,14.50
2010,07,11,04,20,14.50
2010,07,11,04,21,14.60
2010,07,11,04,22,14.60
2010,07,11,04,23,14.60
2010,07,11,04,24,14.60
2010,07,11,04,25,14.60
2010,07,11,04,26,14.60
2010,07,11,04,27,14.60
2010,07,11,04,28,14.60
2010,07,11,04,29,14.60
2010,07,11,04,30,14.60
2010,07,11,04,31,14.60
2010,07,11,04,32,14.60
2010,07,11,04,33,14.60
2010,07,11,04,34,14.60
2010,07,11,04,35,14.60
2010,07,11,04,36,14.60
2010,07,11,04,37,14.60
2010,07,11,04,38,14.60
2010,07,11,04,39,14.60
2010,07,11,04,40,14.60
2010,07,11,04,41,14.60
2010,07,11,04,42,14.60
2010,07,11,04,43,14.50
2010,07,11,04,44,14.50
2010,07,11,04,45,14.50
2010,07,11,04,46,14.50
2010,07,11,04,47,14.50
2010,07,11,04,48,14.40
2010,07,11,04,49,14.40
2010,07,11,04,50,14.40
2010,07,11,04,51,14.40
2010,07,11,04,52,14.40
2010,07,11,04,53,14.40
2010,07,11,04,54,14.40
2010,07,11,04,55,14.40
2010,07,11,04,56,14.40
2010,07,11,04,57,14.40
2010,07,11,04,58,14.40
2010,07,11,04,59,14.30
2010,07,11,05,00,14.30
2010,07,11,05,01,14.30
2010,07,11,05,02,14.30
2010,07,11,05,03,14.30
2010,07,11,05,04,14.30
2010,07,11,05,05,14.30
2010,07,11,05,06,14.30
2010,07,11,05,07,14.30
2010,07,11,05,08,14.30
2010,07,11,05,09,14.30
2010,07,11,05,10,14.30
2010,07,11,05,11,14.30
2010,07,11,05,12,14.20
2010,07,11,05,13,14.20
2010,07,11,05,14,14.20
2010,07,11,05,15,14.20
2010,07,11,05,16,14.20
2010,07,11,05,17,14.20
2010,07,11,05,18,14.20
2010,07,11,05,19,14.20
2010,07,11,05,20,14.10
2010,07,11,05,21,14.10
2010,07,11,05,22,14.10
2010,07,11,05,23,14.10
2010,07,11,05,24,14.10
2010,07,11,05,25,14.10
2010,07,11,05,26,14.10
2010,07,11,05,27,14.10
2010,07,11,05,28,14.10
2010,07,11,05,29,14.10
2010,07,11,05,30,14.10
2010,07,11,05,31,14.00
2010,07,11,05,32,14.00
2010,07,11,05,33,14.00
2010,07,11,05,34,14.00
2010,07,11,05,35,14.00
2010,07,11,05,36,14.00
2010,07,11,05,37,14.00
2010,07,11,05,38,14.00
2010,07,11,05,39,14.00
2010,07,11,05,40,14.00
2010,07,11,05,41,14.00
2010,07,11,05,42,14.00
2010,07,11,05,43,14.00
2010,07,11,05,44,14.00
2010,07,11,05,45,14.00
2010,07,11,05,46,14.00
2010,07,11,05,47,14.00
2010,07,11,05,48,14.00
2010,07,11,05,49,13.90
2010,07,11,05,50,13.90
2010,07,11,05,51,13.90
2010,07,11,05,52,13.90
2010,07,11,05,53,13.90
2010,07,11,05,54,13.90
2010,07,11,05,55,13.90
2010,07,11,05,56,13.90
2010,07,11,05,57,13.90
2010,07,11,05,58,13.90
2010,07,11,05,59,13.90
2010,07,11,06,00,13.90
2010,07,11,06,01,13.90
2010,07,11,06,02,13.90
2010,07,11,06,03,13.90
2010,07,11,06,04,13.90
2010,07,11,06,05,13.90
2010,07,11,06,06,13.90
2010,07,11,06,07,13.90
2010,07,11,06,08,14.00
2010,07,11,06,09,14.00
2010,07,11,06,10,14.00
2010,07,11,06,11,14.10
2010,07,11,06,12,14.10
2010,07,11,06,13,14.10
2010,07,11,06,14,14.10
2010,07,11,06,15,14.10
2010,07,11,06,16,14.10
2010,07,11,06,17,14.10
2010,07,11,06,18,14.10
2010,07,11,06,19,14.10
2010,07,11,06,20,14.10
2010,07,11,06,21,14.20
2010,07,11,06,22,14.20
2010,07,11,06,23,14.20
2010,07,11,06,24,14.20
2010,07,11,06,25,14.20
2010,07,11,06,26,14.20
2010,07,11,06,27,14.20
2010,07,11,06,28,14.20
2010,07,11,06,29,14.20
2010,07,11,06,30,14.20
2010,07,11,06,31,14.30
2010,07,11,06,32,14.30
2010,07,11,06,33,14.30
2010,07,11,06,34,14.30
2010,07,11,06,35,14.30
2010,07,11,06,36,14.30
2010,07,11,06,37,14.30
2010,07,11,06,38,14.40
2010,07,11,06,39,14.40
2010,07,11,06,40,14.40
2010,07,11,06,41,14.40
2010,07,11,06,42,14.40
2010,07,11,06,43,14.40
2010,07,11,06,44,14.50
2010,07,11,06,45,14.50
2010,07,11,06,46,14.50
2010,07,11,06,47,14.60
2010,07,11,06,48,14.60
2010,07,11,06,49,14.60
2010,07,11,06,50,14.60
2010,07,11,06,51,14.60
2010,07,11,06,52,14.60
2010,07,11,06,53,14.70
2010,07,11,06,54,14.70
2010,07,11,06,55,14.70
2010,07,11,06,56,14.70
2010,07,11,06,57,14.70
2010,07,11,06,58,14.80
2010,07,11,06,59,14.80
2010,07,11,07,00,14.80
2010,07,11,07,01,14.80
2010,07,11,07,02,14.80
2010,07,11,07,03,14.90
2010,07,11,07,04,14.90
2010,07,11,07,05,15.00
2010,07,11,07,06,15.00
2010,07,11,07,07,15.00
2010,07,11,07,08,15.00
2010,07,11,07,09,15.00
2010,07,11,07,10,15.00
2010,07,11,07,11,15.00
2010,07,11,07,12,15.00
2010,07,11,07,13,15.00
2010,07,11,07,14,15.00
2010,07,11,07,15,15.00
2010,07,11,07,16,15.00
2010,07,11,07,17,15.00
2010,07,11,07,18,15.00
2010,07,11,07,19,15.10
2010,07,11,07,20,15.10
2010,07,11,07,21,15.10
2010,07,11,07,22,15.20
2010,07,11,07,23,15.20
2010,07,11,07,24,15.30
2010,07,11,07,25,15.30
2010,07,11,07,26,15.30
2010,07,11,07,27,15.40
2010,07,11,07,28,15.40
2010,07,11,07,29,15.40
2010,07,11,07,30,15.50
2010,07,11,07,31,15.50
2010,07,11,07,32,15.60
2010,07,11,07,33,15.60
2010,07,11,07,34,15.60
2010,07,11,07,35,15.70
2010,07,11,07,36,15.70
2010,07,11,07,37,15.80
2010,07,11,07,38,15.80
2010,07,11,07,39,15.90
2010,07,11,07,40,15.90
2010,07,11,07,41,15.90
2010,07,11,07,42,16.00
2010,07,11,07,43,16.00
2010,07,11,07,44,16.10
2010,07,11,07,45,16.10
2010,07,11,07,46,16.10
2010,07,11,07,47,16.20
2010,07,11,07,48,16.20
2010,07,11,07,49,16.20
2010,07,11,07,50,16.30
2010,07,11,07,51,16.30
2010,07,11,07,52,16.30
2010,07,11,07,53,16.40
2010,07,11,07,54,16.40
2010,07,11,07,55,16.40
2010,07,11,07,56,16.50
2010,07,11,07,57,16.60
2010,07,11,07,58,16.60
2010,07,11,07,59,16.70
2010,07,11,08,00,16.80
2010,07,11,08,01,16.80
2010,07,11,08,02,16.90
2010,07,11,08,03,16.90
2010,07,11,08,04,17.00
2010,07,11,08,05,17.10
2010,07,11,08,06,17.10
2010,07,11,08,07,17.20
2010,07,11,08,08,17.20
2010,07,11,08,09,17.30
2010,07,11,08,10,17.30
2010,07,11,08,11,17.40
2010,07,11,08,12,17.50
2010,07,11,08,13,17.60
2010,07,11,08,14,17.70
2010,07,11,08,15,17.80
2010,07,11,08,16,17.90
2010,07,11,08,17,18.00
2010,07,11,08,18,18.10
2010,07,11,08,19,18.20
2010,07,11,08,20,18.30
2010,07,11,08,21,18.50
2010,07,11,08,22,18.60
2010,07,11,08,23,18.70
2010,07,11,08,24,18.90
2010,07,11,08,25,19.00
2010,07,11,08,26,19.10
2010,07,11,08,27,19.30
2010,07,11,08,28,19.40
2010,07,11,08,29,19.50
2010,07,11,08,30,19.60
2010,07,11,08,31,19.70
2010,07,11,08,32,19.90
2010,07,11,08,33,20.00
2010,07,11,08,34,20.00
2010,07,11,08,35,19.90
2010,07,11,08,36,19.90
2010,07,11,08,37,20.00
2010,07,11,08,38,20.00
2010,07,11,08,39,20.10
2010,07,11,08,40,20.10
2010,07,11,08,41,20.20
2010,07,11,08,42,20.30
2010,07,11,08,43,20.30
2010,07,11,08,44,20.40
2010,07,11,08,45,20.40
2010,07,11,08,46,20.50
2010,07,11,08,47,20.60
2010,07,11,08,48,20.60
2010,07,11,08,49,20.70
2010,07,11,08,50,20.70
2010,07,11,08,51,20.70
2010,07,11,08,52,20.60
2010,07,11,08,53,20.50
2010,07,11,08,54,20.40
2010,07,11,08,55,20.40
2010,07,11,08,56,20.30
2010,07,11,08,57,20.20
2010,07,11,08,58,20.10
2010,07,11,08,59,20.10
2010,07,11,09,00,20.10
2010,07,11,09,01,20.10
2010,07,11,09,02,20.10
2010,07,11,09,03,20.10
2010,07,11,09,04,20.20
2010,07,11,09,05,20.20
2010,07,11,09,06,20.30
2010,07,11,09,07,20.40
2010,07,11,09,08,20.50
2010,07,11,09,09,20.60
2010,07,11,09,10,20.60
2010,07,11,09,11,20.70
2010,07,11,09,12,20.70
2010,07,11,09,13,20.70
2010,07,11,09,14,20.80
2010,07,11,09,15,20.80
2010,07,11,09,16,20.80
2010,07,11,09,17,20.80
2010,07,11,09,18,20.80
2010,07,11,09,19,20.90
2010,07,11,09,20,21.00
2010,07,11,09,21,21.10
2010,07,11,09,22,21.10
2010,07,11,09,23,21.10
2010,07,11,09,24,21.20
2010,07,11,09,25,21.20
2010,07,11,09,26,21.20
2010,07,11,09,27,21.10
2010,07,11,09,28,21.10
2010,07,11,09,29,21.10
2010,07,11,09,30,21.10
2010,07,11,09,31,21.10
2010,07,11,09,32,21.10
2010,07,11,09,33,21.10
2010,07,11,09,34,21.10
2010,07,11,09,35,21.20
2010,07,11,09,36,21.20
2010,07,11,09,37,21.30
2010,07,11,09,38,21.30
2010,07,11,09,39,21.40
2010,07,11,09,40,21.50
2010,07,11,09,41,21.60
2010,07,11,09,42,21.60
2010,07,11,09,43,21.80
2010,07,11,09,44,21.90
2010,07,11,09,45,22.10
2010,07,11,09,46,22.20
2010,07,11,09,47,22.30
2010,07,11,09,48,22.30
2010,07,11,09,49,22.40
2010,07,11,09,50,22.50
2010,07,11,09,51,22.50
2010,07,11,09,52,22.50
2010,07,11,09,53,22.60
2010,07,11,09,54,22.60
2010,07,11,09,55,22.70
2010,07,11,09,56,22.70
2010,07,11,09,57,22.80
2010,07,11,09,58,22.80
2010,07,11,09,59,22.70
2010,07,11,10,00,22.70
2010,07,11,10,01,22.60
2010,07,11,10,02,22.60
2010,07,11,10,03,22.50
2010,07,11,10,04,22.40
2010,07,11,10,05,22.30
2010,07,11,10,06,22.30
2010,07,11,10,07,22.20
2010,07,11,10,08,22.00
2010,07,11,10,09,21.80
2010,07,11,10,10,21.60
2010,07,11,10,11,21.50
2010,07,11,10,12,21.40
2010,07,11,10,13,21.30
2010,07,11,10,14,21.20
2010,07,11,10,15,21.10
2010,07,11,10,16,20.90
2010,07,11,10,17,20.80
2010,07,11,10,18,20.70
2010,07,11,10,19,20.70
2010,07,11,10,20,20.70
2010,07,11,10,21,20.70
2010,07,11,10,22,20.70
2010,07,11,10,23,20.80
2010,07,11,10,24,20.70
2010,07,11,10,25,20.70
2010,07,11,10,26,20.70
2010,07,11,10,27,20.60
2010,07,11,10,28,20.50
2010,07,11,10,29,20.50
2010,07,11,10,30,20.40
2010,07,11,10,31,20.40
2010,07,11,10,32,20.40
2010,07,11,10,33,20.40
2010,07,11,10,34,20.40
2010,07,11,10,35,20.40
2010,07,11,10,36,20.50
2010,07,11,10,37,20.60
2010,07,11,10,38,20.60
2010,07,11,10,39,20.60
2010,07,11,10,40,20.60
2010,07,11,10,41,20.50
2010,07,11,10,42,20.50
2010,07,11,10,43,20.60
2010,07,11,10,44,20.60
2010,07,11,10,45,20.60
2010,07,11,10,46,20.50
2010,07,11,10,47,20.50
2010,07,11,10,48,20.40
2010,07,11,10,49,20.40
2010,07,11,10,50,20.30
2010,07,11,10,51,20.30
2010,07,11,10,52,20.40
2010,07,11,10,53,20.40
2010,07,11,10,54,20.40
2010,07,11,10,55,20.40
2010,07,11,10,56,20.30
2010,07,11,10,57,20.30
2010,07,11,10,58,20.20
2010,07,11,10,59,20.20
2010,07,11,11,00,20.20
2010,07,11,11,01,20.20
2010,07,11,11,02,20.20
2010,07,11,11,03,20.20
2010,07,11,11,04,20.30
2010,07,11,11,05,20.40
2010,07,11,11,06,20.50
2010,07,11,11,07,20.60
2010,07,11,11,08,20.70
2010,07,11,11,09,20.80
2010,07,11,11,10,20.90
2010,07,11,11,11,21.00
2010,07,11,11,12,20.90
2010,07,11,11,13,20.90
2010,07,11,11,14,20.90
2010,07,11,11,15,20.90
2010,07,11,11,16,20.90
2010,07,11,11,17,20.90
2010,07,11,11,18,21.00
2010,07,11,11,19,21.00
2010,07,11,11,20,21.00
2010,07,11,11,21,20.90
2010,07,11,11,22,20.90
2010,07,11,11,23,21.00
2010,07,11,11,24,21.10
2010,07,11,11,25,21.10
2010,07,11,11,26,21.20
2010,07,11,11,27,21.20
2010,07,11,11,28,21.20
2010,07,11,11,29,21.30
2010,07,11,11,30,21.40
2010,07,11,11,31,21.40
2010,07,11,11,32,21.40
2010,07,11,11,33,21.40
2010,07,11,11,34,21.40
2010,07,11,11,35,21.30
2010,07,11,11,36,21.10
2010,07,11,11,37,21.00
2010,07,11,11,38,20.90
2010,07,11,11,39,20.80
2010,07,11,11,40,20.70
2010,07,11,11,41,20.60
2010,07,11,11,42,20.40
2010,07,11,11,43,20.40
2010,07,11,11,44,20.40
2010,07,11,11,45,20.30
2010,07,11,11,46,20.30
2010,07,11,11,47,20.40
2010,07,11,11,48,20.50
2010,07,11,11,49,20.60
2010,07,11,11,50,20.60
2010,07,11,11,51,20.60
2010,07,11,11,52,20.60
2010,07,11,11,53,20.70
2010,07,11,11,54,20.70
2010,07,11,11,55,20.70
2010,07,11,11,56,20.70
2010,07,11,11,57,20.80
2010,07,11,11,58,20.80
2010,07,11,11,59,20.80
2010,07,11,12,00,20.90
2010,07,11,12,01,20.90
2010,07,11,12,02,21.00
2010,07,11,12,03,21.00
2010,07,11,12,04,21.00
2010,07,11,12,05,20.90
2010,07,11,12,06,20.80
2010,07,11,12,07,20.70
2010,07,11,12,08,20.60
2010,07,11,12,09,20.60
2010,07,11,12,10,20.60
2010,07,11,12,11,20.60
2010,07,11,12,12,20.60
2010,07,11,12,13,20.70
2010,07,11,12,14,20.70
2010,07,11,12,15,20.70
2010,07,11,12,16,20.70
2010,07,11,12,17,20.80
2010,07,11,12,18,20.80
2010,07,11,12,19,20.80
2010,07,11,12,20,20.90
2010,07,11,12,21,21.00
2010,07,11,12,22,21.00
2010,07,11,12,23,21.00
2010,07,11,12,24,20.90
2010,07,11,12,25,21.00
2010,07,11,12,26,21.00
2010,07,11,12,27,21.10
2010,07,11,12,28,21.20
2010,07,11,12,29,21.20
2010,07,11,12,30,21.20
2010,07,11,12,31,21.10
2010,07,11,12,32,21.00
2010,07,11,12,33,21.10
2010,07,11,12,34,21.10
2010,07,11,12,35,21.00
2010,07,11,12,36,20.90
2010,07,11,12,37,20.90
2010,07,11,12,38,20.90
2010,07,11,12,39,20.90
2010,07,11,12,40,20.90
2010,07,11,12,41,20.90
2010,07,11,12,42,20.80
2010,07,11,12,43,20.60
2010,07,11,12,44,20.60
2010,07,11,12,45,20.60
2010,07,11,12,46,20.60
2010,07,11,12,47,20.60
2010,07,11,12,48,20.60
2010,07,11,12,49,20.60
2010,07,11,12,50,20.60
2010,07,11,12,51,20.50
2010,07,11,12,52,20.50
2010,07,11,12,53,20.60
2010,07,11,12,54,20.60
2010,07,11,12,55,20.50
2010,07,11,12,56,20.50
2010,07,11,12,57,20.50
2010,07,11,12,58,20.40
2010,07,11,12,59,20.30
2010,07,11,13,00,20.30
2010,07,11,13,01,20.30
2010,07,11,13,02,20.20
2010,07,11,13,03,20.20
2010,07,11,13,04,20.20
2010,07,11,13,05,20.20
2010,07,11,13,06,20.30
2010,07,11,13,07,20.30
2010,07,11,13,08,20.40
2010,07,11,13,09,20.60
2010,07,11,13,10,20.70
2010,07,11,13,11,20.90
2010,07,11,13,12,20.90
2010,07,11,13,13,21.00
2010,07,11,13,14,21.10
2010,07,11,13,15,21.20
2010,07,11,13,16,21.20
2010,07,11,13,17,21.30
2010,07,11,13,18,21.30
2010,07,11,13,19,21.30
2010,07,11,13,20,21.30
2010,07,11,13,21,21.40
2010,07,11,13,22,21.30
2010,07,11,13,23,21.30
2010,07,11,13,24,21.30
2010,07,11,13,25,21.30
2010,07,11,13,26,21.30
2010,07,11,13,27,21.50
2010,07,11,13,28,21.60
2010,07,11,13,29,21.70
2010,07,11,13,30,21.70
2010,07,11,13,31,21.60
2010,07,11,13,32,21.50
2010,07,11,13,33,21.50
2010,07,11,13,34,21.50
2010,07,11,13,35,21.50
2010,07,11,13,36,21.50
2010,07,11,13,37,21.50
2010,07,11,13,38,21.50
2010,07,11,13,39,21.60
2010,07,11,13,40,21.60
2010,07,11,13,41,21.60
2010,07,11,13,42,21.60
2010,07,11,13,43,21.60
2010,07,11,13,44,21.60
2010,07,11,13,45,21.60
2010,07,11,13,46,21.70
2010,07,11,13,47,21.70
2010,07,11,13,48,21.60
2010,07,11,13,49,21.50
2010,07,11,13,50,21.50
2010,07,11,13,51,21.40
2010,07,11,13,52,21.30
2010,07,11,13,53,21.20
2010,07,11,13,54,21.20
2010,07,11,13,55,21.20
2010,07,11,13,56,21.20
2010,07,11,13,57,21.20
2010,07,11,13,58,21.30
2010,07,11,13,59,21.20
2010,07,11,14,00,21.10
2010,07,11,14,01,21.10
2010,07,11,14,02,21.10
2010,07,11,14,03,21.10
2010,07,11,14,04,21.10
2010,07,11,14,05,21.10
2010,07,11,14,06,21.10
2010,07,11,14,07,21.10
2010,07,11,14,08,21.10
2010,07,11,14,09,21.20
2010,07,11,14,10,21.30
2010,07,11,14,11,21.40
2010,07,11,14,12,21.50
2010,07,11,14,13,21.50
2010,07,11,14,14,21.60
2010,07,11,14,15,21.50
2010,07,11,14,16,21.40
2010,07,11,14,17,21.30
2010,07,11,14,18,21.30
2010,07,11,14,19,21.40
2010,07,11,14,20,21.50
2010,07,11,14,21,21.70
2010,07,11,14,22,21.90
2010,07,11,14,23,21.90
2010,07,11,14,24,21.90
2010,07,11,14,25,21.80
2010,07,11,14,26,21.70
2010,07,11,14,27,21.70
2010,07,11,14,28,21.70
2010,07,11,14,29,21.70
2010,07,11,14,30,21.70
2010,07,11,14,31,21.80
2010,07,11,14,32,21.80
2010,07,11,14,33,21.70
2010,07,11,14,34,21.60
2010,07,11,14,35,21.50
2010,07,11,14,36,21.50
2010,07,11,14,37,21.50
2010,07,11,14,38,21.50
2010,07,11,14,39,21.60
2010,07,11,14,40,21.60
2010,07,11,14,41,21.60
2010,07,11,14,42,21.60
2010,07,11,14,43,21.60
2010,07,11,14,44,21.60
2010,07,11,14,45,21.60
2010,07,11,14,46,21.60
2010,07,11,14,47,21.50
2010,07,11,14,48,21.40
2010,07,11,14,49,21.40
2010,07,11,14,50,21.30
2010,07,11,14,51,21.40
2010,07,11,14,52,21.50
2010,07,11,14,53,21.60
2010,07,11,14,54,21.70
2010,07,11,14,55,21.80
2010,07,11,14,56,21.90
2010,07,11,14,57,22.00
2010,07,11,14,58,22.10
2010,07,11,14,59,22.20
2010,07,11,15,00,22.10
2010,07,11,15,01,22.00
2010,07,11,15,02,22.00
2010,07,11,15,03,22.00
2010,07,11,15,04,22.10
2010,07,11,15,05,22.10
2010,07,11,15,06,22.10
2010,07,11,15,07,22.20
2010,07,11,15,08,22.20
2010,07,11,15,09,22.30
2010,07,11,15,10,22.30
2010,07,11,15,11,22.20
2010,07,11,15,12,22.20
2010,07,11,15,13,22.30
2010,07,11,15,14,22.50
2010,07,11,15,15,22.60
2010,07,11,15,16,22.70
2010,07,11,15,17,22.70
2010,07,11,15,18,22.70
2010,07,11,15,19,22.60
2010,07,11,15,20,22.50
2010,07,11,15,21,22.40
2010,07,11,15,22,22.30
2010,07,11,15,23,22.20
2010,07,11,15,24,22.20
2010,07,11,15,25,22.30
2010,07,11,15,26,22.40
2010,07,11,15,27,22.40
2010,07,11,15,28,22.40
2010,07,11,15,29,22.50
2010,07,11,15,30,22.60
2010,07,11,15,31,22.70
2010,07,11,15,32,22.80
2010,07,11,15,33,23.00
2010,07,11,15,34,23.10
2010,07,11,15,35,23.20
2010,07,11,15,36,23.10
2010,07,11,15,37,23.20
2010,07,11,15,38,23.10
2010,07,11,15,39,23.10
2010,07,11,15,40,23.20
2010,07,11,15,41,23.20
2010,07,11,15,42,23.10
2010,07,11,15,43,23.00
2010,07,11,15,44,22.90
2010,07,11,15,45,22.80
2010,07,11,15,46,22.70
2010,07,11,15,47,22.70
2010,07,11,15,48,22.80
2010,07,11,15,49,22.80
2010,07,11,15,50,22.90
2010,07,11,15,51,22.90
2010,07,11,15,52,22.90
2010,07,11,15,53,23.00
2010,07,11,15,54,23.00
2010,07,11,15,55,23.00
2010,07,11,15,56,23.00
2010,07,11,15,57,23.10
2010,07,11,15,58,23.00
2010,07,11,15,59,22.80
2010,07,11,16,00,22.70
2010,07,11,16,01,22.50
2010,07,11,16,02,22.40
2010,07,11,16,03,22.30
2010,07,11,16,04,22.30
2010,07,11,16,05,22.30
2010,07,11,16,06,22.50
2010,07,11,16,07,22.50
2010,07,11,16,08,22.60
2010,07,11,16,09,22.50
2010,07,11,16,10,22.50
2010,07,11,16,11,22.50
2010,07,11,16,12,22.50
2010,07,11,16,13,22.50
2010,07,11,16,14,22.40
2010,07,11,16,15,22.50
2010,07,11,16,16,22.60
2010,07,11,16,17,22.70
2010,07,11,16,18,22.80
2010,07,11,16,19,22.90
2010,07,11,16,20,22.90
2010,07,11,16,21,22.90
2010,07,11,16,22,22.90
2010,07,11,16,23,22.90
2010,07,11,16,24,22.90
2010,07,11,16,25,22.90
2010,07,11,16,26,22.90
2010,07,11,16,27,22.90
2010,07,11,16,28,23.00
2010,07,11,16,29,23.10
2010,07,11,16,30,23.10
2010,07,11,16,31,23.00
2010,07,11,16,32,23.00
2010,07,11,16,33,22.80
2010,07,11,16,34,22.80
2010,07,11,16,35,22.70
2010,07,11,16,36,22.70
2010,07,11,16,37,22.70
2010,07,11,16,38,22.70
2010,07,11,16,39,22.80
2010,07,11,16,40,22.80
2010,07,11,16,41,22.80
2010,07,11,16,42,22.80
2010,07,11,16,43,22.90
2010,07,11,16,44,23.00
2010,07,11,16,45,23.10
2010,07,11,16,46,23.20
2010,07,11,16,47,23.40
2010,07,11,16,48,23.50
2010,07,11,16,49,23.60
2010,07,11,16,50,23.60
2010,07,11,16,51,23.60
2010,07,11,16,52,23.60
2010,07,11,16,53,23.60
2010,07,11,16,54,23.70
2010,07,11,16,55,23.70
2010,07,11,16,56,23.70
2010,07,11,16,57,23.70
2010,07,11,16,58,23.60
2010,07,11,16,59,23.70
2010,07,11,17,00,23.70
2010,07,11,17,01,23.70
2010,07,11,17,02,23.70
2010,07,11,17,03,23.60
2010,07,11,17,04,23.60
2010,07,11,17,05,23.50
2010,07,11,17,06,23.50
2010,07,11,17,07,23.50
2010,07,11,17,08,23.40
2010,07,11,17,09,23.30
2010,07,11,17,10,23.20
2010,07,11,17,11,23.10
2010,07,11,17,12,23.00
2010,07,11,17,13,22.90
2010,07,11,17,14,22.80
2010,07,11,17,15,22.70
2010,07,11,17,16,22.70
2010,07,11,17,17,22.80
2010,07,11,17,18,22.80
2010,07,11,17,19,22.80